Location: *
(35.2348°S, 91.3916°E)
Time: 09:42:13
(UTC+00:00)

Cosmos 1725 Rocket - Pass Details

Date: 23 October 2019
Orbit: 963 x 990 km, 82.9° (Epoch: 19 November)

Event Time Altitude Azimuth Distance (km) Brightness Sun altitude
Exits shadow 13:47:10 19° 21° (NNE) 2,162 5.4 -18.1°
Maximum altitude 13:51:33 51° 89° (E) 1,230 4.2 -18.9°
Drops below altitude 10° 13:57:39 10° 163° (SSE) 2,767 6.5 -20.0°
Sets 14:00:15 0° 167° (SSE) 3,719 7.3 -20.4°
